Time,TemperatureF,DewpointF,PressureIn,WindDirection,WindDirectionDegrees,WindSpeedMPH,WindSpeedGustMPH,Humidity,HourlyPrecipIn,Conditions,Clouds,dailyrainin,SolarRadiationWatts/m^2,SoftwareType,DateUTC
2013-08-30 00:03:00,74.8,68.2,30.15,West,269,0.0,0.0,80,0.00,,,1.06,0.0,meteohub,2013-08-30 07:03:00,
2013-08-30 00:08:00,74.8,68.2,30.15,West,269,0.0,1.0,80,0.00,,,0.00,0.0,meteohub,2013-08-30 07:08:00,
2013-08-30 00:13:00,74.8,68.2,30.15,West,269,0.0,2.0,80,0.00,,,0.00,0.0,meteohub,2013-08-30 07:13:00,
2013-08-30 00:18:00,74.8,68.5,30.15,West,269,0.0,2.0,81,0.00,,,0.00,0.0,meteohub,2013-08-30 07:18:00,
2013-08-30 00:23:00,74.8,68.5,30.15,West,269,0.0,2.0,81,0.00,,,0.00,0.0,meteohub,2013-08-30 07:23:00,
2013-08-30 00:28:00,74.8,68.9,30.15,West,269,0.0,1.0,82,0.00,,,0.00,0.0,meteohub,2013-08-30 07:28:00,
2013-08-30 00:33:00,74.8,68.2,30.15,West,269,2.0,2.0,80,0.00,,,0.00,0.0,meteohub,2013-08-30 07:33:00,
2013-08-30 00:38:00,74.8,68.5,30.15,West,269,0.0,3.0,81,0.00,,,0.00,0.0,meteohub,2013-08-30 07:38:00,
2013-08-30 00:43:00,74.8,68.5,30.15,West,269,1.0,3.0,81,0.00,,,0.00,0.0,meteohub,2013-08-30 07:43:00,
2013-08-30 00:48:00,74.7,68.4,30.14,West,269,0.0,3.0,81,0.00,,,0.00,0.0,meteohub,2013-08-30 07:48:00,
2013-08-30 00:53:00,74.7,68.4,30.15,West,269,1.0,3.0,81,0.00,,,0.00,0.0,meteohub,2013-08-30 07:53:00,
2013-08-30 00:58:00,74.3,68.7,30.15,West,269,1.0,3.0,83,0.00,,,0.00,0.0,meteohub,2013-08-30 07:58:00,
2013-08-30 01:03:00,73.9,68.7,30.14,West,269,1.0,2.0,84,0.00,,,0.00,0.0,meteohub,2013-08-30 08:03:00,
2013-08-30 01:08:00,73.8,68.9,30.14,West,269,0.0,2.0,85,0.00,,,0.00,0.0,meteohub,2013-08-30 08:08:00,
2013-08-30 01:13:00,73.6,69.1,30.14,West,269,0.0,2.0,86,0.00,,,0.00,0.0,meteohub,2013-08-30 08:13:00,
2013-08-30 01:18:00,73.6,69.4,30.14,West,269,0.0,2.0,87,0.00,,,0.00,0.0,meteohub,2013-08-30 08:18:00,
2013-08-30 01:23:00,73.2,69.4,30.14,West,269,1.0,1.0,88,0.00,,,0.00,0.0,meteohub,2013-08-30 08:23:00,
2013-08-30 01:28:00,73.0,69.6,30.14,West,269,1.0,2.0,89,0.00,,,0.00,0.0,meteohub,2013-08-30 08:28:00,
2013-08-30 01:33:00,73.0,69.6,30.13,West,269,0.0,2.0,89,0.01,,,0.01,0.0,meteohub,2013-08-30 08:33:00,
2013-08-30 01:38:00,72.9,69.4,30.14,West,269,0.0,2.0,89,0.01,,,0.01,0.0,meteohub,2013-08-30 08:38:00,
2013-08-30 01:43:00,72.9,69.4,30.13,West,269,0.0,2.0,89,0.01,,,0.01,0.0,meteohub,2013-08-30 08:43:00,
2013-08-30 01:48:00,72.9,69.8,30.13,West,269,0.0,2.0,90,0.01,,,0.01,0.0,meteohub,2013-08-30 08:48:00,
2013-08-30 01:53:00,72.9,70.2,30.13,West,269,0.0,0.0,91,0.01,,,0.01,0.0,meteohub,2013-08-30 08:53:00,
2013-08-30 01:58:00,72.7,70.2,30.13,West,269,0.0,0.0,92,0.01,,,0.01,0.0,meteohub,2013-08-30 08:58:00,
2013-08-30 02:03:00,72.7,70.2,30.14,West,269,0.0,0.0,92,0.01,,,0.01,0.0,meteohub,2013-08-30 09:03:00,
2013-08-30 02:08:00,72.7,70.2,30.13,West,269,0.0,0.0,92,0.01,,,0.01,0.0,meteohub,2013-08-30 09:08:00,
2013-08-30 02:13:00,72.7,70.2,30.14,West,269,0.0,0.0,92,0.01,,,0.01,0.0,meteohub,2013-08-30 09:13:00,
2013-08-30 02:18:00,72.7,70.5,30.13,West,269,0.0,1.0,93,0.01,,,0.01,0.0,meteohub,2013-08-30 09:18:00,
2013-08-30 02:23:00,72.7,70.5,30.13,West,269,1.0,1.0,93,0.01,,,0.01,0.0,meteohub,2013-08-30 09:23:00,
2013-08-30 02:28:00,72.7,70.5,30.13,West,269,0.0,1.0,93,0.01,,,0.01,0.0,meteohub,2013-08-30 09:28:00,
2013-08-30 02:33:00,72.7,70.5,30.13,West,269,0.0,2.0,93,0.00,,,0.01,0.0,meteohub,2013-08-30 09:33:00,
2013-08-30 02:38:00,72.5,70.3,30.13,West,269,0.0,2.0,93,0.00,,,0.01,0.0,meteohub,2013-08-30 09:38:00,
2013-08-30 02:43:00,72.3,70.2,30.13,West,269,1.0,2.0,93,0.00,,,0.01,0.0,meteohub,2013-08-30 09:43:00,
2013-08-30 02:48:00,72.3,70.2,30.13,West,269,0.0,2.0,93,0.00,,,0.01,0.0,meteohub,2013-08-30 09:48:00,
2013-08-30 02:53:00,72.3,70.2,30.13,West,269,1.0,2.0,93,0.00,,,0.01,0.0,meteohub,2013-08-30 09:53:00,
2013-08-30 02:58:00,72.3,70.2,30.13,West,269,0.0,2.0,93,0.00,,,0.01,0.0,meteohub,2013-08-30 09:58:00,
2013-08-30 03:04:00,72.3,70.5,30.12,West,269,0.0,1.0,94,0.00,,,0.01,0.0,meteohub,2013-08-30 10:04:00,
2013-08-30 03:09:00,72.3,70.5,30.13,West,269,0.0,1.0,94,0.00,,,0.01,0.0,meteohub,2013-08-30 10:09:00,
2013-08-30 03:14:00,72.1,70.3,30.13,West,269,0.0,0.0,94,0.00,,,0.01,0.0,meteohub,2013-08-30 10:14:00,
2013-08-30 03:19:00,72.1,70.3,30.13,West,269,0.0,0.0,94,0.00,,,0.01,0.0,meteohub,2013-08-30 10:19:00,
2013-08-30 03:24:00,72.1,70.3,30.13,West,269,0.0,0.0,94,0.00,,,0.01,0.0,meteohub,2013-08-30 10:24:00,
2013-08-30 03:29:00,72.1,70.3,30.13,West,269,0.0,0.0,94,0.00,,,0.01,0.0,meteohub,2013-08-30 10:29:00,
2013-08-30 03:34:00,72.1,70.7,30.13,West,269,0.0,0.0,95,0.00,,,0.01,0.0,meteohub,2013-08-30 10:34:00,
2013-08-30 03:39:00,72.1,70.3,30.13,West,269,0.0,0.0,94,0.00,,,0.01,0.0,meteohub,2013-08-30 10:39:00,
2013-08-30 03:44:00,72.1,70.3,30.13,West,269,0.0,0.0,94,0.00,,,0.01,0.0,meteohub,2013-08-30 10:44:00,
2013-08-30 03:49:00,72.1,70.3,30.13,West,269,0.0,1.0,94,0.00,,,0.01,0.0,meteohub,2013-08-30 10:49:00,
2013-08-30 03:54:00,72.0,70.2,30.13,West,269,0.0,1.0,94,0.00,,,0.01,0.0,meteohub,2013-08-30 10:54:00,
2013-08-30 03:59:00,72.0,70.2,30.13,West,269,0.0,1.0,94,0.00,,,0.01,0.0,meteohub,2013-08-30 10:59:00,
2013-08-30 04:04:00,72.0,70.5,30.13,West,269,0.0,0.0,95,0.00,,,0.01,0.0,meteohub,2013-08-30 11:04:00,
2013-08-30 04:09:00,72.0,70.5,30.13,West,269,0.0,0.0,95,0.00,,,0.01,0.0,meteohub,2013-08-30 11:09:00,
2013-08-30 04:14:00,72.0,70.5,30.13,West,269,0.0,1.0,95,0.00,,,0.01,0.0,meteohub,2013-08-30 11:14:00,
2013-08-30 04:19:00,72.0,70.5,30.13,West,269,0.0,1.0,95,0.00,,,0.01,0.0,meteohub,2013-08-30 11:19:00,
2013-08-30 04:24:00,72.0,70.5,30.13,West,269,0.0,1.0,95,0.00,,,0.01,0.0,meteohub,2013-08-30 11:24:00,
2013-08-30 04:29:00,72.0,70.5,30.13,West,269,1.0,1.0,95,0.00,,,0.01,0.0,meteohub,2013-08-30 11:29:00,
2013-08-30 04:34:00,72.0,70.5,30.13,West,269,0.0,1.0,95,0.00,,,0.01,0.0,meteohub,2013-08-30 11:34:00,
2013-08-30 04:39:00,72.0,70.5,30.13,West,269,0.0,1.0,95,0.00,,,0.01,0.0,meteohub,2013-08-30 11:39:00,
2013-08-30 04:44:00,72.0,70.5,30.12,West,269,1.0,1.0,95,0.00,,,0.01,0.0,meteohub,2013-08-30 11:44:00,
2013-08-30 04:49:00,72.0,70.5,30.13,West,269,0.0,1.0,95,0.00,,,0.01,0.0,meteohub,2013-08-30 11:49:00,
2013-08-30 04:54:00,71.8,70.3,30.13,West,269,0.0,1.0,95,0.00,,,0.01,0.0,meteohub,2013-08-30 11:54:00,
2013-08-30 04:59:00,71.8,70.5,30.13,West,269,0.0,1.0,96,0.00,,,0.01,0.0,meteohub,2013-08-30 11:59:00,
2013-08-30 05:04:00,71.8,70.3,30.13,West,269,0.0,1.0,95,0.00,,,0.01,0.0,meteohub,2013-08-30 12:04:00,
2013-08-30 05:09:00,71.8,70.3,30.13,West,269,0.0,1.0,95,0.00,,,0.01,0.0,meteohub,2013-08-30 12:09:00,
2013-08-30 05:14:00,71.8,70.3,30.13,West,269,0.0,1.0,95,0.00,,,0.01,0.0,meteohub,2013-08-30 12:14:00,
2013-08-30 05:19:00,71.8,70.3,30.13,West,269,0.0,1.0,95,0.00,,,0.01,0.0,meteohub,2013-08-30 12:19:00,
2013-08-30 05:24:00,71.8,70.3,30.13,West,269,0.0,1.0,95,0.00,,,0.01,0.0,meteohub,2013-08-30 12:24:00,
2013-08-30 05:29:00,71.8,70.3,30.13,West,269,0.0,1.0,95,0.00,,,0.01,0.0,meteohub,2013-08-30 12:29:00,
2013-08-30 05:35:00,71.8,70.3,30.13,West,269,0.0,1.0,95,0.00,,,0.01,0.0,meteohub,2013-08-30 12:35:00,
2013-08-30 05:40:00,71.8,70.3,30.13,West,269,0.0,1.0,95,0.00,,,0.01,0.0,meteohub,2013-08-30 12:40:00,
2013-08-30 05:45:00,71.8,70.3,30.13,West,269,0.0,0.0,95,0.00,,,0.01,0.0,meteohub,2013-08-30 12:45:00,
2013-08-30 05:50:00,71.8,70.3,30.13,West,269,0.0,0.0,95,0.00,,,0.01,0.0,meteohub,2013-08-30 12:50:00,
2013-08-30 05:55:00,71.8,70.3,30.13,West,269,0.0,0.0,95,0.00,,,0.01,0.0,meteohub,2013-08-30 12:55:00,
2013-08-30 06:00:00,71.8,70.3,30.13,West,269,0.0,0.0,95,0.00,,,0.01,0.0,meteohub,2013-08-30 13:00:00,
2013-08-30 06:05:00,72.0,70.7,30.13,West,269,0.0,0.0,96,0.00,,,0.01,5.0,meteohub,2013-08-30 13:05:00,
2013-08-30 06:10:00,72.0,70.7,30.13,West,269,0.0,0.0,96,0.00,,,0.01,5.0,meteohub,2013-08-30 13:10:00,
2013-08-30 06:15:00,72.0,70.5,30.13,West,269,0.0,0.0,95,0.00,,,0.01,11.0,meteohub,2013-08-30 13:15:00,
2013-08-30 06:20:00,72.0,70.5,30.14,West,269,0.0,0.0,95,0.00,,,0.01,21.0,meteohub,2013-08-30 13:20:00,
2013-08-30 06:25:00,72.0,70.7,30.14,West,269,0.0,0.0,96,0.00,,,0.01,32.0,meteohub,2013-08-30 13:25:00,
2013-08-30 06:30:00,72.1,70.7,30.14,West,269,0.0,0.0,95,0.00,,,0.01,46.0,meteohub,2013-08-30 13:30:00,
2013-08-30 06:35:00,72.1,70.7,30.14,West,269,0.0,1.0,95,0.00,,,0.01,60.0,meteohub,2013-08-30 13:35:00,
2013-08-30 06:40:00,72.5,71.1,30.14,West,269,1.0,2.0,95,0.00,,,0.01,70.0,meteohub,2013-08-30 13:40:00,
2013-08-30 06:45:00,72.7,71.2,30.14,West,269,0.0,2.0,95,0.00,,,0.01,81.0,meteohub,2013-08-30 13:45:00,
2013-08-30 06:50:00,72.9,71.1,30.14,West,269,1.0,2.0,94,0.00,,,0.01,88.0,meteohub,2013-08-30 13:50:00,
2013-08-30 06:55:00,73.0,70.9,30.14,West,269,1.0,3.0,93,0.00,,,0.01,95.0,meteohub,2013-08-30 13:55:00,
2013-08-30 07:00:00,73.2,70.7,30.14,West,269,2.0,3.0,92,0.00,,,0.01,105.0,meteohub,2013-08-30 14:00:00,
2013-08-30 07:05:00,73.6,71.1,30.15,West,269,2.0,3.0,92,0.00,,,0.01,111.0,meteohub,2013-08-30 14:05:00,
2013-08-30 07:10:00,73.8,70.9,30.15,West,269,1.0,3.0,91,0.00,,,0.01,114.0,meteohub,2013-08-30 14:10:00,
2013-08-30 07:15:00,73.9,70.5,30.15,West,269,2.0,3.0,89,0.00,,,0.01,120.0,meteohub,2013-08-30 14:15:00,
2013-08-30 07:20:00,74.1,70.7,30.15,West,269,1.0,2.0,89,0.00,,,0.01,125.0,meteohub,2013-08-30 14:20:00,
2013-08-30 07:25:00,74.3,70.5,30.15,West,269,0.0,2.0,88,0.00,,,0.01,127.0,meteohub,2013-08-30 14:25:00,
2013-08-30 07:31:00,74.5,70.3,30.15,West,269,0.0,2.0,87,0.00,,,0.01,135.0,meteohub,2013-08-30 14:31:00,
2013-08-30 07:36:00,74.7,70.2,30.15,West,269,0.0,2.0,86,0.00,,,0.01,142.0,meteohub,2013-08-30 14:36:00,
2013-08-30 07:41:00,74.8,70.7,30.15,West,269,1.0,1.0,87,0.00,,,0.01,148.0,meteohub,2013-08-30 14:41:00,
2013-08-30 07:46:00,75.0,70.5,30.15,West,269,1.0,2.0,86,0.00,,,0.01,155.0,meteohub,2013-08-30 14:46:00,
2013-08-30 07:51:00,75.2,70.3,30.15,West,269,0.0,2.0,85,0.00,,,0.01,163.0,meteohub,2013-08-30 14:51:00,
2013-08-30 07:56:00,75.4,70.9,30.15,West,269,0.0,2.0,86,0.00,,,0.01,156.0,meteohub,2013-08-30 14:56:00,
2013-08-30 08:01:00,75.6,70.3,30.15,West,269,0.0,2.0,84,0.00,,,0.01,155.0,meteohub,2013-08-30 15:01:00,
2013-08-30 08:06:00,75.7,70.2,30.15,West,269,0.0,2.0,83,0.00,,,0.01,171.0,meteohub,2013-08-30 15:06:00,
2013-08-30 08:11:00,76.1,70.5,30.15,West,269,0.0,2.0,83,0.00,,,0.01,185.0,meteohub,2013-08-30 15:11:00,
2013-08-30 08:16:00,76.3,70.7,30.15,West,269,0.0,2.0,83,0.00,,,0.01,195.0,meteohub,2013-08-30 15:16:00,
2013-08-30 08:21:00,76.5,70.2,30.15,West,269,0.0,2.0,81,0.00,,,0.01,209.0,meteohub,2013-08-30 15:21:00,
2013-08-30 08:26:00,76.6,70.7,30.14,West,269,1.0,3.0,82,0.00,,,0.01,211.0,meteohub,2013-08-30 15:26:00,
2013-08-30 08:31:00,76.8,70.9,30.15,West,269,2.0,3.0,82,0.00,,,0.01,214.0,meteohub,2013-08-30 15:31:00,
2013-08-30 08:36:00,77.0,70.3,30.15,West,261,2.0,4.0,80,0.00,,,0.01,218.0,meteohub,2013-08-30 15:36:00,
2013-08-30 08:41:00,77.2,70.5,30.14,West,265,2.0,4.0,80,0.00,,,0.01,216.0,meteohub,2013-08-30 15:41:00,
2013-08-30 08:46:00,77.2,70.5,30.15,WSW,254,2.0,4.0,80,0.00,,,0.01,225.0,meteohub,2013-08-30 15:46:00,
2013-08-30 08:51:00,77.4,71.4,30.15,West,270,0.0,4.0,82,0.00,,,0.01,234.0,meteohub,2013-08-30 15:51:00,
2013-08-30 08:56:00,77.7,70.7,30.15,West,263,1.0,4.0,79,0.00,,,0.01,246.0,meteohub,2013-08-30 15:56:00,
2013-08-30 09:01:00,77.9,70.5,30.15,WNW,288,2.0,4.0,78,0.00,,,0.01,267.0,meteohub,2013-08-30 16:01:00,
2013-08-30 09:06:00,78.1,70.3,30.15,WSW,251,2.0,4.0,77,0.00,,,0.01,287.0,meteohub,2013-08-30 16:06:00,
2013-08-30 09:11:00,78.3,70.0,30.15,WSW,244,3.0,4.0,76,0.00,,,0.01,269.0,meteohub,2013-08-30 16:11:00,
2013-08-30 09:16:00,78.4,70.2,30.15,WSW,252,2.0,4.0,76,0.01,,,0.02,241.0,meteohub,2013-08-30 16:16:00,
2013-08-30 09:21:00,78.6,69.6,30.15,West,262,2.0,4.0,74,0.01,,,0.02,236.0,meteohub,2013-08-30 16:21:00,
2013-08-30 09:26:00,78.8,70.2,30.15,WSW,256,2.0,3.0,75,0.01,,,0.02,248.0,meteohub,2013-08-30 16:26:00,
2013-08-30 09:31:00,79.0,70.0,30.14,WSW,256,2.0,3.0,74,0.01,,,0.02,265.0,meteohub,2013-08-30 16:31:00,
2013-08-30 09:36:00,79.2,70.2,30.14,WSW,256,0.0,3.0,74,0.01,,,0.02,290.0,meteohub,2013-08-30 16:36:00,
2013-08-30 09:41:00,79.3,70.0,30.14,WSW,256,1.0,3.0,73,0.01,,,0.02,301.0,meteohub,2013-08-30 16:41:00,
2013-08-30 09:48:00,79.7,69.8,30.14,WSW,256,0.0,3.0,72,0.01,,,0.02,302.0,meteohub,2013-08-30 16:48:00,
2013-08-30 09:53:00,80.1,68.9,30.14,WSW,256,1.0,2.0,69,0.01,,,0.02,318.0,meteohub,2013-08-30 16:53:00,
2013-08-30 09:58:00,80.1,69.4,30.14,WSW,256,1.0,3.0,70,0.01,,,0.02,336.0,meteohub,2013-08-30 16:58:00,
2013-08-30 10:03:00,80.4,69.8,30.14,SW,234,0.0,3.0,70,0.01,,,0.02,362.0,meteohub,2013-08-30 17:03:00,
2013-08-30 10:08:00,80.6,69.1,30.14,SW,229,2.0,4.0,68,0.01,,,0.02,380.0,meteohub,2013-08-30 17:08:00,
2013-08-30 10:13:00,80.8,69.3,30.14,WSW,240,1.0,4.0,68,0.01,,,0.02,376.0,meteohub,2013-08-30 17:13:00,
2013-08-30 10:18:00,81.1,69.6,30.14,West,263,2.0,4.0,68,0.00,,,0.02,360.0,meteohub,2013-08-30 17:18:00,
2013-08-30 10:23:00,81.1,69.6,30.14,West,269,1.0,3.0,68,0.00,,,0.02,369.0,meteohub,2013-08-30 17:23:00,
2013-08-30 10:28:00,81.5,70.0,30.14,WNW,293,2.0,4.0,68,0.00,,,0.02,387.0,meteohub,2013-08-30 17:28:00,
2013-08-30 10:33:00,81.9,70.3,30.14,NW,304,2.0,4.0,68,0.00,,,0.02,404.0,meteohub,2013-08-30 17:33:00,
2013-08-30 10:38:00,82.0,69.6,30.14,SW,229,1.0,4.0,66,0.00,,,0.02,424.0,meteohub,2013-08-30 17:38:00,
2013-08-30 10:43:00,82.2,69.3,30.14,SSW,200,1.0,4.0,65,0.00,,,0.02,517.0,meteohub,2013-08-30 17:43:00,
2013-08-30 10:48:00,82.6,69.6,30.14,WNW,284,2.0,3.0,65,0.00,,,0.02,476.0,meteohub,2013-08-30 17:48:00,
2013-08-30 10:53:00,82.8,68.9,30.14,WSW,244,3.0,4.0,63,0.00,,,0.02,411.0,meteohub,2013-08-30 17:53:00,
2013-08-30 10:58:00,82.8,69.3,30.14,WSW,255,1.0,4.0,64,0.00,,,0.02,394.0,meteohub,2013-08-30 17:58:00,
2013-08-30 11:03:00,82.9,69.4,30.14,NW,309,1.0,4.0,64,0.00,,,0.02,357.0,meteohub,2013-08-30 18:03:00,
2013-08-30 11:08:00,83.1,69.6,30.14,West,271,0.0,4.0,64,0.00,,,0.02,339.0,meteohub,2013-08-30 18:08:00,
2013-08-30 11:13:00,83.3,68.9,30.14,West,259,1.0,4.0,62,0.00,,,0.02,341.0,meteohub,2013-08-30 18:13:00,
2013-08-30 11:18:00,83.3,69.4,30.14,NW,309,2.0,4.0,63,0.00,,,0.02,336.0,meteohub,2013-08-30 18:18:00,
2013-08-30 11:23:00,83.1,69.3,30.14,WSW,248,2.0,6.0,63,0.00,,,0.02,338.0,meteohub,2013-08-30 18:23:00,
2013-08-30 11:28:00,83.3,68.9,30.13,WSW,257,4.0,6.0,62,0.00,,,0.02,338.0,meteohub,2013-08-30 18:28:00,
2013-08-30 11:33:00,83.1,68.7,30.14,NW,304,1.0,6.0,62,0.00,,,0.02,338.0,meteohub,2013-08-30 18:33:00,
2013-08-30 11:38:00,83.3,68.9,30.13,NW,313,1.0,4.0,62,0.00,,,0.02,345.0,meteohub,2013-08-30 18:38:00,
2013-08-30 11:43:00,83.3,68.9,30.13,West,271,2.0,5.0,62,0.00,,,0.02,352.0,meteohub,2013-08-30 18:43:00,
2013-08-30 11:48:00,83.5,68.5,30.13,West,263,2.0,5.0,61,0.00,,,0.02,376.0,meteohub,2013-08-30 18:48:00,
2013-08-30 11:53:00,83.7,68.7,30.13,SW,225,2.0,5.0,61,0.00,,,0.02,410.0,meteohub,2013-08-30 18:53:00,
2013-08-30 11:58:00,83.7,68.4,30.13,WSW,245,1.0,5.0,60,0.00,,,0.02,436.0,meteohub,2013-08-30 18:58:00,
2013-08-30 12:03:00,83.8,68.0,30.13,West,269,2.0,4.0,59,0.00,,,0.02,450.0,meteohub,2013-08-30 19:03:00,
2013-08-30 12:08:00,84.0,68.2,30.12,WSW,257,2.0,4.0,59,0.00,,,0.02,480.0,meteohub,2013-08-30 19:08:00,
2013-08-30 12:13:00,84.4,68.0,30.12,WSW,253,4.0,4.0,58,0.00,,,0.02,533.0,meteohub,2013-08-30 19:13:00,
2013-08-30 12:18:00,84.6,68.2,30.12,NW,321,1.0,6.0,58,0.00,,,0.02,564.0,meteohub,2013-08-30 19:18:00,
2013-08-30 12:23:00,85.1,68.7,30.12,WSW,254,3.0,6.0,58,0.00,,,0.02,540.0,meteohub,2013-08-30 19:23:00,
2013-08-30 12:28:00,85.5,68.0,30.12,NW,307,1.0,6.0,56,0.00,,,0.02,570.0,meteohub,2013-08-30 19:28:00,
2013-08-30 12:33:00,85.6,68.2,30.12,NNW,341,3.0,4.0,56,0.00,,,0.02,650.0,meteohub,2013-08-30 19:33:00,
2013-08-30 12:38:00,85.8,68.4,30.12,NW,310,1.0,4.0,56,0.00,,,0.02,779.0,meteohub,2013-08-30 19:38:00,
2013-08-30 12:43:00,86.5,68.4,30.12,West,268,1.0,5.0,55,0.00,,,0.02,902.0,meteohub,2013-08-30 19:43:00,
2013-08-30 12:48:00,86.5,68.0,30.11,SW,218,2.0,5.0,54,0.00,,,0.02,619.0,meteohub,2013-08-30 19:48:00,
2013-08-30 12:53:00,86.5,68.0,30.11,SSW,194,1.0,4.0,54,0.00,,,0.02,585.0,meteohub,2013-08-30 19:53:00,
2013-08-30 12:58:00,86.7,67.5,30.11,NNW,327,2.0,4.0,53,0.00,,,0.02,591.0,meteohub,2013-08-30 19:58:00,
2013-08-30 13:03:00,87.3,66.9,30.11,NNW,327,1.0,4.0,51,0.00,,,0.02,626.0,meteohub,2013-08-30 20:03:00,
2013-08-30 13:09:00,87.6,67.3,30.10,ESE,105,2.0,4.0,51,0.00,,,0.02,568.0,meteohub,2013-08-30 20:09:00,
2013-08-30 13:14:00,87.6,67.3,30.10,SSE,147,1.0,5.0,51,0.00,,,0.02,552.0,meteohub,2013-08-30 20:14:00,
2013-08-30 13:19:00,88.0,67.6,30.10,SE,146,3.0,5.0,51,0.00,,,0.02,561.0,meteohub,2013-08-30 20:19:00,
2013-08-30 13:24:00,88.0,65.3,30.10,SSW,204,2.0,5.0,47,0.00,,,0.02,541.0,meteohub,2013-08-30 20:24:00,
2013-08-30 13:29:00,87.8,64.4,30.10,WSW,238,2.0,5.0,46,0.00,,,0.02,490.0,meteohub,2013-08-30 20:29:00,
2013-08-30 13:34:00,87.4,63.5,30.10,SSW,206,0.0,5.0,45,0.00,,,0.02,499.0,meteohub,2013-08-30 20:34:00,
2013-08-30 13:39:00,87.6,63.7,30.09,SW,224,0.0,5.0,45,0.00,,,0.02,682.0,meteohub,2013-08-30 20:39:00,
2013-08-30 13:44:00,88.0,64.0,30.09,SSW,194,1.0,4.0,45,0.00,,,0.02,492.0,meteohub,2013-08-30 20:44:00,
2013-08-30 13:49:00,88.2,62.8,30.09,WSW,253,4.0,4.0,43,0.00,,,0.02,413.0,meteohub,2013-08-30 20:49:00,
2013-08-30 13:54:00,88.0,63.3,30.09,WSW,238,1.0,4.0,44,0.00,,,0.02,367.0,meteohub,2013-08-30 20:54:00,
2013-08-30 13:59:00,88.0,64.0,30.09,NW,314,0.0,4.0,45,0.00,,,0.02,318.0,meteohub,2013-08-30 20:59:00,
2013-08-30 14:04:00,88.2,65.3,30.09,NNW,341,1.0,4.0,47,0.00,,,0.02,294.0,meteohub,2013-08-30 21:04:00,
2013-08-30 14:09:00,88.2,64.8,30.09,NNE,30,1.0,4.0,46,0.00,,,0.02,295.0,meteohub,2013-08-30 21:09:00,
2013-08-30 14:14:00,88.2,64.2,30.08,NNW,346,1.0,3.0,45,0.00,,,0.02,325.0,meteohub,2013-08-30 21:14:00,
2013-08-30 14:19:00,88.2,65.3,30.08,NNE,26,1.0,3.0,47,0.00,,,0.02,357.0,meteohub,2013-08-30 21:19:00,
2013-08-30 14:24:00,88.3,66.2,30.08,NNE,26,0.0,3.0,48,0.00,,,0.02,350.0,meteohub,2013-08-30 21:24:00,
2013-08-30 14:29:00,88.5,65.1,30.07,NNE,26,0.0,3.0,46,0.00,,,0.02,276.0,meteohub,2013-08-30 21:29:00,
2013-08-30 14:34:00,88.5,63.9,30.07,NNE,26,0.0,3.0,44,0.00,,,0.02,257.0,meteohub,2013-08-30 21:34:00,
2013-08-30 14:39:00,88.3,64.2,30.07,West,269,0.0,2.0,45,0.00,,,0.02,248.0,meteohub,2013-08-30 21:39:00,
2013-08-30 14:44:00,88.3,65.5,30.07,West,269,1.0,3.0,47,0.00,,,0.02,230.0,meteohub,2013-08-30 21:44:00,
2013-08-30 14:49:00,88.3,64.9,30.06,West,265,1.0,3.0,46,0.00,,,0.02,223.0,meteohub,2013-08-30 21:49:00,
2013-08-30 14:54:00,88.3,64.9,30.06,NE,53,1.0,3.0,46,0.00,,,0.02,207.0,meteohub,2013-08-30 21:54:00,
2013-08-30 14:59:00,88.2,64.2,30.06,ENE,64,0.0,3.0,45,0.00,,,0.02,190.0,meteohub,2013-08-30 21:59:00,
2013-08-30 15:04:00,88.0,64.0,30.06,ENE,64,0.0,3.0,45,0.00,,,0.02,193.0,meteohub,2013-08-30 22:04:00,
2013-08-30 15:09:00,88.0,64.6,30.06,NNW,342,1.0,3.0,46,0.00,,,0.02,192.0,meteohub,2013-08-30 22:09:00,
2013-08-30 15:14:00,87.6,65.5,30.06,NNW,336,1.0,2.0,48,0.00,,,0.02,197.0,meteohub,2013-08-30 22:14:00,
2013-08-30 15:19:00,87.6,64.9,30.06,NNW,336,1.0,3.0,47,0.00,,,0.02,207.0,meteohub,2013-08-30 22:19:00,
2013-08-30 15:24:00,87.4,64.0,30.06,NNW,331,0.0,3.0,46,0.00,,,0.02,188.0,meteohub,2013-08-30 22:24:00,
2013-08-30 15:29:00,87.4,64.0,30.06,NNW,331,1.0,3.0,46,0.00,,,0.02,181.0,meteohub,2013-08-30 22:29:00,
2013-08-30 15:34:00,87.3,64.0,30.06,NNW,331,0.0,3.0,46,0.00,,,0.02,162.0,meteohub,2013-08-30 22:34:00,
2013-08-30 15:39:00,87.3,64.0,30.06,NNW,331,0.0,2.0,46,0.00,,,0.02,116.0,meteohub,2013-08-30 22:39:00,
2013-08-30 15:44:00,87.4,64.0,30.06,NNW,331,0.0,2.0,46,0.00,,,0.02,105.0,meteohub,2013-08-30 22:44:00,
2013-08-30 15:49:00,87.3,64.0,30.05,NW,314,0.0,2.0,46,0.00,,,0.02,113.0,meteohub,2013-08-30 22:49:00,
2013-08-30 15:54:00,87.3,64.6,30.05,NW,314,0.0,2.0,47,0.00,,,0.02,109.0,meteohub,2013-08-30 22:54:00,
2013-08-30 15:59:00,87.1,65.7,30.05,NW,314,2.0,2.0,49,0.00,,,0.02,105.0,meteohub,2013-08-30 22:59:00,
2013-08-30 16:04:00,86.9,65.5,30.05,NW,314,0.0,2.0,49,0.00,,,0.02,104.0,meteohub,2013-08-30 23:04:00,
2013-08-30 16:09:00,86.7,65.8,30.06,NW,314,0.0,2.0,50,0.00,,,0.02,102.0,meteohub,2013-08-30 23:09:00,
2013-08-30 16:14:00,86.5,64.6,30.05,NW,314,0.0,2.0,48,0.00,,,0.02,98.0,meteohub,2013-08-30 23:14:00,
2013-08-30 16:19:00,86.7,65.8,30.05,NW,314,0.0,2.0,50,0.00,,,0.02,95.0,meteohub,2013-08-30 23:19:00,
2013-08-30 16:24:00,86.7,66.4,30.05,NW,314,0.0,2.0,51,0.00,,,0.02,95.0,meteohub,2013-08-30 23:24:00,
2013-08-30 16:30:00,86.5,64.6,30.05,NW,314,0.0,1.0,48,0.00,,,0.02,95.0,meteohub,2013-08-30 23:30:00,
2013-08-30 16:35:00,86.5,64.6,30.05,NW,314,0.0,1.0,48,0.00,,,0.02,95.0,meteohub,2013-08-30 23:35:00,
2013-08-30 16:40:00,86.5,65.7,30.05,NW,314,0.0,1.0,50,0.00,,,0.02,95.0,meteohub,2013-08-30 23:40:00,
2013-08-30 16:45:00,86.5,63.9,30.05,NW,314,0.0,1.0,47,0.00,,,0.02,95.0,meteohub,2013-08-30 23:45:00,
2013-08-30 16:50:00,86.5,65.7,30.05,NW,314,0.0,1.0,50,0.00,,,0.02,93.0,meteohub,2013-08-30 23:50:00,
2013-08-30 16:55:00,86.5,65.7,30.04,NW,314,1.0,1.0,50,0.00,,,0.02,90.0,meteohub,2013-08-30 23:55:00,
2013-08-30 17:00:00,86.4,66.0,30.04,North,355,1.0,1.0,51,0.00,,,0.02,88.0,meteohub,2013-08-31 00:00:00,
2013-08-30 17:05:00,86.2,67.1,30.05,North,355,0.0,2.0,53,0.00,,,0.02,84.0,meteohub,2013-08-31 00:05:00,
2013-08-30 17:10:00,85.8,67.3,30.05,North,355,1.0,2.0,54,0.00,,,0.02,81.0,meteohub,2013-08-31 00:10:00,
2013-08-30 17:15:00,85.6,69.1,30.05,North,355,0.0,2.0,58,0.00,,,0.02,76.0,meteohub,2013-08-31 00:15:00,
2013-08-30 17:20:00,85.5,68.5,30.05,North,355,0.0,2.0,57,0.00,,,0.02,72.0,meteohub,2013-08-31 00:20:00,
2013-08-30 17:25:00,85.3,67.8,30.05,North,355,0.0,2.0,56,0.00,,,0.02,69.0,meteohub,2013-08-31 00:25:00,
2013-08-30 17:30:00,85.1,67.6,30.05,North,355,1.0,2.0,56,0.00,,,0.02,63.0,meteohub,2013-08-31 00:30:00,
2013-08-30 17:35:00,84.9,68.0,30.04,North,355,1.0,2.0,57,0.00,,,0.02,62.0,meteohub,2013-08-31 00:35:00,
2013-08-30 17:40:00,84.7,68.4,30.04,North,355,0.0,2.0,58,0.00,,,0.02,60.0,meteohub,2013-08-31 00:40:00,
2013-08-30 17:45:00,84.7,68.4,30.04,North,355,0.0,2.0,58,0.00,,,0.02,54.0,meteohub,2013-08-31 00:45:00,
2013-08-30 17:50:00,84.6,66.0,30.04,ESE,104,1.0,2.0,54,0.00,,,0.02,51.0,meteohub,2013-08-31 00:50:00,
2013-08-30 17:55:00,84.7,67.8,30.04,ESE,104,0.0,2.0,57,0.00,,,0.02,47.0,meteohub,2013-08-31 00:55:00,
2013-08-30 18:00:00,84.6,68.7,30.04,ESE,104,0.0,2.0,59,0.00,,,0.02,44.0,meteohub,2013-08-31 01:00:00,
2013-08-30 18:05:00,84.6,67.6,30.04,ESE,104,0.0,1.0,57,0.00,,,0.02,44.0,meteohub,2013-08-31 01:05:00,
2013-08-30 18:10:00,84.4,70.0,30.04,ESE,104,0.0,1.0,62,0.00,,,0.02,42.0,meteohub,2013-08-31 01:10:00,
2013-08-30 18:15:00,84.4,68.9,30.04,ESE,104,0.0,1.0,60,0.00,,,0.02,39.0,meteohub,2013-08-31 01:15:00,
2013-08-30 18:20:00,84.0,67.6,30.04,ESE,104,0.0,1.0,58,0.00,,,0.02,33.0,meteohub,2013-08-31 01:20:00,
2013-08-30 18:25:00,84.0,67.6,30.04,ESE,104,0.0,1.0,58,0.00,,,0.02,25.0,meteohub,2013-08-31 01:25:00,
2013-08-30 18:30:00,83.8,67.5,30.04,ESE,104,0.0,1.0,58,0.00,,,0.02,18.0,meteohub,2013-08-31 01:30:00,
2013-08-30 18:35:00,83.8,68.5,30.04,ESE,104,0.0,1.0,60,0.00,,,0.02,12.0,meteohub,2013-08-31 01:35:00,
2013-08-30 18:40:00,83.7,68.7,30.04,ESE,104,0.0,1.0,61,0.00,,,0.02,7.0,meteohub,2013-08-31 01:40:00,
2013-08-30 18:45:00,83.5,68.5,30.04,ESE,104,0.0,1.0,61,0.00,,,0.02,5.0,meteohub,2013-08-31 01:45:00,
2013-08-30 18:50:00,83.1,68.4,30.04,ESE,104,0.0,1.0,61,0.00,,,0.02,0.0,meteohub,2013-08-31 01:50:00,
2013-08-30 18:55:00,82.9,68.5,30.05,ESE,104,0.0,1.0,62,0.00,,,0.02,0.0,meteohub,2013-08-31 01:55:00,
2013-08-30 19:00:00,82.8,69.3,30.05,ESE,104,0.0,2.0,64,0.00,,,0.02,0.0,meteohub,2013-08-31 02:00:00,
2013-08-30 19:05:00,82.6,69.1,30.06,ESE,104,0.0,2.0,64,0.00,,,0.02,0.0,meteohub,2013-08-31 02:05:00,
2013-08-30 19:10:00,82.2,69.3,30.06,ESE,104,0.0,2.0,65,0.00,,,0.02,0.0,meteohub,2013-08-31 02:10:00,
2013-08-30 19:15:00,82.0,68.2,30.06,ESE,104,0.0,1.0,63,0.00,,,0.02,0.0,meteohub,2013-08-31 02:15:00,
2013-08-30 19:20:00,81.9,68.5,30.06,ESE,104,0.0,0.0,64,0.00,,,0.02,0.0,meteohub,2013-08-31 02:20:00,
2013-08-30 19:25:00,81.7,68.7,30.07,ESE,104,0.0,2.0,65,0.00,,,0.02,0.0,meteohub,2013-08-31 02:25:00,
2013-08-30 19:30:00,81.5,69.1,30.07,ESE,104,0.0,2.0,66,0.00,,,0.02,0.0,meteohub,2013-08-31 02:30:00,
2013-08-30 19:35:00,81.3,68.9,30.07,ESE,104,1.0,2.0,66,0.00,,,0.02,0.0,meteohub,2013-08-31 02:35:00,
2013-08-30 19:40:00,81.1,68.2,30.07,ENE,78,1.0,2.0,65,0.00,,,0.02,0.0,meteohub,2013-08-31 02:40:00,
2013-08-30 19:45:00,81.0,68.0,30.08,ENE,78,1.0,3.0,65,0.00,,,0.02,0.0,meteohub,2013-08-31 02:45:00,
2013-08-30 19:50:00,81.0,68.0,30.08,ENE,78,1.0,3.0,65,0.00,,,0.02,0.0,meteohub,2013-08-31 02:50:00,
2013-08-30 19:55:00,81.0,68.5,30.08,ENE,78,0.0,2.0,66,0.00,,,0.02,0.0,meteohub,2013-08-31 02:55:00,
2013-08-30 20:00:00,81.0,69.4,30.08,ENE,78,0.0,2.0,68,0.00,,,0.02,0.0,meteohub,2013-08-31 03:00:00,
2013-08-30 20:05:00,80.8,68.4,30.08,ENE,78,0.0,1.0,66,0.00,,,0.02,0.0,meteohub,2013-08-31 03:05:00,
2013-08-30 20:10:00,81.0,68.0,30.08,ENE,78,0.0,2.0,65,0.00,,,0.02,0.0,meteohub,2013-08-31 03:10:00,
2013-08-30 20:15:00,81.0,68.0,30.08,ENE,78,0.0,2.0,65,0.00,,,0.02,0.0,meteohub,2013-08-31 03:15:00,
2013-08-30 20:20:00,81.0,68.0,30.08,ENE,78,0.0,2.0,65,0.00,,,0.02,0.0,meteohub,2013-08-31 03:20:00,
2013-08-30 20:25:00,81.0,67.6,30.09,ENE,78,1.0,2.0,64,0.00,,,0.02,0.0,meteohub,2013-08-31 03:25:00,
2013-08-30 20:30:00,81.0,69.4,30.08,ENE,78,1.0,1.0,68,0.00,,,0.02,0.0,meteohub,2013-08-31 03:30:00,
2013-08-30 20:35:00,80.8,67.5,30.09,East,97,1.0,3.0,64,0.00,,,0.02,0.0,meteohub,2013-08-31 03:35:00,
2013-08-30 20:40:00,80.6,67.3,30.09,ESE,103,0.0,3.0,64,0.00,,,0.02,0.0,meteohub,2013-08-31 03:40:00,
2013-08-30 20:46:00,80.4,67.1,30.09,ESE,103,1.0,3.0,64,0.00,,,0.02,0.0,meteohub,2013-08-31 03:46:00,
2013-08-30 20:51:00,80.2,66.9,30.09,ESE,103,1.0,3.0,64,0.00,,,0.02,0.0,meteohub,2013-08-31 03:51:00,
2013-08-30 20:56:00,80.2,67.5,30.09,ESE,103,0.0,2.0,65,0.00,,,0.02,0.0,meteohub,2013-08-31 03:56:00,
2013-08-30 21:01:00,80.1,66.4,30.09,ESE,116,2.0,2.0,63,0.00,,,0.02,0.0,meteohub,2013-08-31 04:01:00,
2013-08-30 21:02:00,80.1,65.8,30.09,SE,126,3.0,3.0,62,0.00,,,0.02,0.0,meteohub,2013-08-31 04:02:00,
2013-08-30 21:03:00,79.9,66.2,30.09,SE,135,4.0,4.0,63,0.00,,,0.02,0.0,meteohub,2013-08-31 04:03:00,
2013-08-30 21:08:00,80.2,66.6,30.09,SE,132,1.0,7.0,63,0.00,,,0.02,0.0,meteohub,2013-08-31 04:08:00,
2013-08-30 21:13:00,80.2,65.5,30.09,SE,140,1.0,7.0,61,0.00,,,0.02,0.0,meteohub,2013-08-31 04:13:00,
2013-08-30 21:18:00,80.4,64.8,30.09,ESE,119,1.0,7.0,59,0.00,,,0.02,0.0,meteohub,2013-08-31 04:18:00,
2013-08-30 21:23:00,80.4,64.8,30.08,SE,140,1.0,5.0,59,0.00,,,0.02,0.0,meteohub,2013-08-31 04:23:00,
2013-08-30 21:28:00,80.4,65.3,30.09,SE,146,0.0,5.0,60,0.00,,,0.02,0.0,meteohub,2013-08-31 04:28:00,
2013-08-30 21:33:00,80.2,65.5,30.09,SE,146,1.0,4.0,61,0.00,,,0.02,0.0,meteohub,2013-08-31 04:33:00,
2013-08-30 21:38:00,80.2,66.6,30.09,NE,51,2.0,4.0,63,0.00,,,0.02,0.0,meteohub,2013-08-31 04:38:00,
2013-08-30 21:43:00,79.9,65.7,30.09,North,10,1.0,4.0,62,0.00,,,0.02,0.0,meteohub,2013-08-31 04:43:00,
2013-08-30 21:48:00,79.9,66.6,30.09,North,10,0.0,3.0,64,0.00,,,0.02,0.0,meteohub,2013-08-31 04:48:00,
2013-08-30 21:53:00,79.5,65.8,30.09,NNW,332,2.0,3.0,63,0.00,,,0.02,0.0,meteohub,2013-08-31 04:53:00,
2013-08-30 21:58:00,79.5,66.2,30.09,West,273,1.0,3.0,64,0.00,,,0.02,0.0,meteohub,2013-08-31 04:58:00,
2013-08-30 22:03:00,79.3,66.9,30.09,West,273,1.0,3.0,66,0.00,,,0.02,0.0,meteohub,2013-08-31 05:03:00,
2013-08-30 22:08:00,79.3,66.9,30.09,West,273,0.0,3.0,66,0.00,,,0.02,0.0,meteohub,2013-08-31 05:08:00,
2013-08-30 22:13:00,79.2,67.3,30.09,West,273,0.0,3.0,67,0.00,,,0.02,0.0,meteohub,2013-08-31 05:13:00,
2013-08-30 22:18:00,79.2,67.6,30.09,West,273,1.0,3.0,68,0.00,,,0.02,0.0,meteohub,2013-08-31 05:18:00,
2013-08-30 22:23:00,79.0,67.1,30.09,East,101,1.0,2.0,67,0.00,,,0.02,0.0,meteohub,2013-08-31 05:23:00,
2013-08-30 22:29:00,78.8,66.6,30.09,ESE,109,2.0,3.0,66,0.00,,,0.02,0.0,meteohub,2013-08-31 05:29:00,
2013-08-30 22:34:00,79.0,66.6,30.08,East,96,3.0,3.0,66,0.00,,,0.02,0.0,meteohub,2013-08-31 05:34:00,
2013-08-30 22:39:00,79.0,66.6,30.08,ESE,110,2.0,3.0,66,0.00,,,0.02,0.0,meteohub,2013-08-31 05:39:00,
2013-08-30 22:44:00,79.0,66.6,30.08,ESE,110,0.0,3.0,66,0.00,,,0.02,0.0,meteohub,2013-08-31 05:44:00,
2013-08-30 22:49:00,78.6,65.8,30.08,NE,54,1.0,3.0,65,0.00,,,0.02,0.0,meteohub,2013-08-31 05:49:00,
2013-08-30 22:54:00,78.4,65.7,30.08,East,80,6.0,6.0,65,0.00,,,0.02,0.0,meteohub,2013-08-31 05:54:00,
2013-08-30 22:59:00,78.1,65.8,30.08,East,91,3.0,6.0,66,0.00,,,0.02,0.0,meteohub,2013-08-31 05:59:00,
2013-08-30 23:04:00,77.7,65.8,30.08,East,94,2.0,6.0,67,0.00,,,0.02,0.0,meteohub,2013-08-31 06:04:00,
2013-08-30 23:09:00,77.5,66.2,30.08,ESE,114,3.0,6.0,68,0.00,,,0.02,0.0,meteohub,2013-08-31 06:09:00,
2013-08-30 23:14:00,77.4,66.4,30.08,East,85,2.0,6.0,69,0.00,,,0.02,0.0,meteohub,2013-08-31 06:14:00,
2013-08-30 23:19:00,76.8,67.1,30.08,ENE,78,2.0,8.0,72,0.00,,,0.02,0.0,meteohub,2013-08-31 06:19:00,
2013-08-30 23:24:00,76.5,67.6,30.08,ENE,68,1.0,8.0,74,0.00,,,0.02,0.0,meteohub,2013-08-31 06:24:00,
2013-08-30 23:29:00,75.9,67.8,30.08,ENE,68,0.0,8.0,76,0.00,,,0.02,0.0,meteohub,2013-08-31 06:29:00,
2013-08-30 23:34:00,75.6,67.5,30.08,ENE,68,1.0,5.0,76,0.00,,,0.02,0.0,meteohub,2013-08-31 06:34:00,
2013-08-30 23:39:00,75.6,67.8,30.07,ENE,68,0.0,2.0,77,0.00,,,0.02,0.0,meteohub,2013-08-31 06:39:00,
2013-08-30 23:44:00,75.4,67.3,30.07,ENE,68,0.0,2.0,76,0.00,,,0.02,0.0,meteohub,2013-08-31 06:44:00,
2013-08-30 23:49:00,75.2,67.5,30.08,ENE,68,0.0,2.0,77,0.00,,,0.02,0.0,meteohub,2013-08-31 06:49:00,
2013-08-30 23:54:00,75.2,67.1,30.08,ENE,68,1.0,2.0,76,0.00,,,0.02,0.0,meteohub,2013-08-31 06:54:00,
2013-08-30 23:59:00,75.2,67.1,30.08,ENE,68,1.0,2.0,76,0.00,,,0.02,0.0,meteohub,2013-08-31 06:59:00,